| time (UTC) | temp F | wind direction | speed MPH | gust MPH | rain 1hr in | rain 24hr in | rain mn in | humidity % | barometer mb |
| 20260901224511 | 83 | 102 | 2.0 | 6.0 | 0.00 | 0.00 | 0.00 | 30 | 939.5 |
| 20260901223006 | 82 | 106 | 2.0 | 6.0 | 0.00 | 0.00 | 0.00 | 31 | 939.7 |
| 20260901221504 | 82 | 104 | 1.0 | 6.0 | 0.00 | 0.00 | 0.00 | 29 | 939.8 |
| 20260901220002 | 82 | 103 | 1.0 | 4.0 | 0.00 | 0.00 | 0.00 | 30 | 940.0 |
| 20260901214501 | 82 | 106 | 1.0 | 4.0 | 0.00 | 0.00 | 0.00 | 30 | 940.0 |
| 20260901213001 | 82 | 105 | 1.0 | 6.0 | 0.00 | 0.00 | 0.00 | 30 | 940.1 |
| 20260901211559 | 82 | 115 | 1.0 | 4.0 | 0.00 | 0.00 | 0.00 | 30 | 940.3 |
| 20260901210057 | 82 | 117 | 0.0 | 4.0 | 0.00 | 0.00 | 0.00 | 30 | 940.4 |
| 20260901204555 | 82 | 117 | 1.0 | 4.0 | 0.00 | 0.00 | 0.00 | 30 | 940.6 |
| 20260901203057 | 82 | 128 | 1.0 | 7.0 | 0.00 | 0.00 | 0.00 | 30 | 940.6 |
| 20260901201553 | 83 | 134 | 1.0 | 4.0 | 0.00 | 0.00 | 0.00 | 29 | 940.8 |
| 20260901200150 | 83 | 133 | 1.0 | 5.0 | 0.00 | 0.00 | 0.00 | 30 | 940.9 |
| 20260901194549 | 82 | 122 | 1.0 | 4.0 | 0.00 | 0.00 | 0.00 | 31 | 941.0 |
| 20260901193046 | 81 | 121 | 0.0 | 6.0 | 0.00 | 0.00 | 0.00 | 31 | 941.2 |
| 20260901191545 | 81 | 115 | 1.0 | 3.0 | 0.00 | 0.00 | 0.00 | 33 | 941.3 |
| 20260901190042 | 80 | 115 | 0.0 | 4.0 | 0.00 | 0.00 | 0.00 | 34 | 941.5 |
| 20260901184540 | 80 | 119 | 0.0 | 3.0 | 0.00 | 0.00 | 0.00 | 33 | 941.7 |
| 20260901183059 | 79 | 130 | 0.0 | 2.0 | 0.00 | 0.00 | 0.00 | 34 | 941.8 |
| 20260901181537 | 79 | 131 | 0.0 | 3.0 | 0.00 | 0.00 | 0.00 | 34 | 941.9 |
| 20260901180036 | 79 | 150 | 0.0 | 2.0 | 0.00 | 0.00 | 0.00 | 35 | 941.9 |
| 20260901174533 | 78 | 170 | 0.0 | 2.0 | 0.00 | 0.00 | 0.00 | 37 | 942.0 |
| 20260901173031 | 76 | 171 | 0.0 | 1.0 | 0.00 | 0.00 | 0.00 | 38 | 942.3 |
| 20260901171545 | 77 | 184 | 0.0 | 1.0 | 0.00 | 0.00 | 0.00 | 39 | 942.2 |
| 20260901170041 | 76 | 190 | 0.0 | 3.0 | 0.00 | 0.00 | 0.00 | 44 | 942.4 |
| 20260901164522 | 74 | 200 | 0.0 | 1.0 | 0.00 | 0.00 | 0.00 | 47 | 942.5 |
| 20260901163020 | 71 | 207 | 0.0 | 2.0 | 0.00 | 0.00 | 0.00 | 53 | 942.5 |
| 20260901161513 | 68 | 246 | 0.0 | 0.0 | 0.00 | 0.00 | 0.00 | 58 | 942.6 |
| 20260901160011 | 66 | 246 | 0.0 | 1.0 | 0.00 | 0.00 | 0.00 | 60 | 942.7 |
| 20260901154504 | 64 | 246 | 0.0 | 0.0 | 0.00 | 0.00 | 0.00 | 62 | 942.6 |
| 20260901153101 | 62 | 246 | 0.0 | 0.0 | 0.00 | 0.00 | 0.00 | 64 | 942.6 |
| 20260901151600 | 62 | 246 | 0.0 | 0.0 | 0.00 | 0.00 | 0.00 | 66 | 942.6 |
| 20260901150055 | 60 | 246 | 0.0 | 0.0 | 0.00 | 0.00 | 0.00 | 70 | 942.7 |
| 20260901144548 | 59 | 246 | 0.0 | 2.0 | 0.00 | 0.00 | 0.00 | 72 | 942.8 |
| 20260901143047 | 57 | 290 | 0.0 | 1.0 | 0.00 | 0.00 | 0.00 | 79 | 942.8 |
| 20260901141544 | 54 | 290 | 0.0 | 0.0 | 0.00 | 0.00 | 0.00 | 85 | 942.7 |
| 20260901140034 | 51 | 290 | 0.0 | 0.0 | 0.00 | 0.00 | 0.00 | 91 | 942.8 |
| 20260901134534 | 50 | 290 | 0.0 | 1.0 | 0.00 | 0.00 | 0.00 | 93 | 942.8 |
| 20260901133038 | 48 | 290 | 0.0 | 0.0 | 0.00 | 0.00 | 0.00 | 94 | 942.7 |
| 20260901131539 | 46 | 290 | 0.0 | 0.0 | 0.00 | 0.00 | 0.00 | 95 | 942.8 |
| 20260901130032 | 44 | 290 | 0.0 | 0.0 | 0.00 | 0.00 | 0.00 | 94 | 942.8 |
| 20260901124531 | 44 | 290 | 0.0 | 0.0 | 0.00 | 0.00 | 0.00 | 93 | 942.8 |
| 20260901123036 | 44 | 290 | 0.0 | 0.0 | 0.00 | 0.00 | 0.00 | 92 | 942.6 |
| 20260901121525 | 44 | 290 | 0.0 | 0.0 | 0.00 | 0.00 | 0.00 | 92 | 942.5 |
| 20260901120024 | 44 | 290 | 0.0 | 1.0 | 0.00 | 0.00 | 0.00 | 92 | 942.4 |
| 20260901114526 | 44 | 290 | 0.0 | 0.0 | 0.00 | 0.00 | 0.00 | 92 | 942.3 |
| 20260901113024 | 44 | 290 | 0.0 | 1.0 | 0.00 | 0.00 | 0.00 | 91 | 942.4 |
| 20260901111521 | 45 | 290 | 0.0 | 0.0 | 0.00 | 0.00 | 0.00 | 90 | 942.4 |
| 20260901110018 | 45 | 290 | 0.0 | 0.0 | 0.00 | 0.00 | 0.00 | 91 | 942.1 |
| 20260901104516 | 46 | 290 | 0.0 | 0.0 | 0.00 | 0.00 | 0.00 | 92 | 942.0 |
| 20260901103017 | 46 | 290 | 0.0 | 0.0 | 0.00 | 0.00 | 0.00 | 91 | 942.1 |
| 20260901101515 | 46 | 290 | 0.0 | 1.0 | 0.00 | 0.00 | 0.00 | 91 | 942.0 |
| 20260901100014 | 46 | 290 | 0.0 | 1.0 | 0.00 | 0.00 | 0.00 | 91 | 942.0 |
| 20260901094512 | 47 | 290 | 0.0 | 0.0 | 0.00 | 0.00 | 0.00 | 90 | 942.1 |
| 20260901093009 | 47 | 290 | 0.0 | 0.0 | 0.00 | 0.00 | 0.00 | 89 | 942.0 |
| 20260901091508 | 48 | 290 | 0.0 | 1.0 | 0.00 | 0.00 | 0.00 | 89 | 942.0 |
| 20260901090016 | 48 | 290 | 0.0 | 1.0 | 0.00 | 0.00 | 0.00 | 89 | 942.0 |
| 20260901084507 | 48 | 290 | 0.0 | 0.0 | 0.00 | 0.00 | 0.00 | 90 | 941.7 |
| 20260901083007 | 48 | 290 | 0.0 | 0.0 | 0.00 | 0.00 | 0.00 | 90 | 942.0 |
| 20260901081505 | 48 | 290 | 0.0 | 0.0 | 0.00 | 0.00 | 0.00 | 90 | 941.8 |
| 20260901080006 | 47 | 290 | 0.0 | 1.0 | 0.00 | 0.00 | 0.00 | 89 | 941.6 |
| 20260901074502 | 47 | 290 | 0.0 | 0.0 | 0.00 | 0.00 | 0.00 | 87 | 941.6 |
| 20260901073100 | 48 | 290 | 0.0 | 0.0 | 0.00 | 0.00 | 0.00 | 86 | 941.6 |
| 20260901071604 | 48 | 290 | 0.0 | 0.0 | 0.00 | 0.00 | 0.00 | 86 | 941.5 |
| 20260901070055 | 49 | 290 | 0.0 | 1.0 | 0.00 | 0.00 | 0.00 | 84 | 941.5 |
| 20260901064554 | 49 | 290 | 0.0 | 0.0 | 0.00 | 0.00 | 0.00 | 85 | 941.3 |
| 20260901063101 | 49 | 290 | 0.0 | 1.0 | 0.00 | 0.00 | 0.00 | 83 | 941.3 |
| 20260901061549 | 50 | 290 | 0.0 | 0.0 | 0.00 | 0.00 | 0.00 | 81 | 941.4 |
| 20260901060044 | 51 | 290 | 0.0 | 0.0 | 0.00 | 0.00 | 0.00 | 81 | 941.0 |
| 20260901054543 | 51 | 290 | 0.0 | 0.0 | 0.00 | 0.00 | 0.00 | 79 | 940.8 |
| 20260901053056 | 52 | 290 | 0.0 | 0.0 | 0.00 | 0.00 | 0.00 | 77 | 941.0 |
| 20260901051541 | 53 | 290 | 0.0 | 0.0 | 0.00 | 0.00 | 0.00 | 75 | 940.9 |
| 20260901050041 | 55 | 290 | 0.0 | 1.0 | 0.00 | 0.00 | 0.00 | 73 | 941.1 |
| 20260901044550 | 56 | 290 | 0.0 | 0.0 | 0.00 | 0.00 | 0.00 | 72 | 941.1 |
| 20260901043040 | 57 | 290 | 0.0 | 0.0 | 0.00 | 0.00 | 0.00 | 70 | 941.2 |
| 20260901041553 | 58 | 290 | 0.0 | 0.0 | 0.00 | 0.00 | 0.00 | 68 | 941.1 |
| 20260901040049 | 58 | 290 | 0.0 | 0.0 | 0.00 | 0.00 | 0.00 | 67 | 941.2 |
| 20260901034536 | 59 | 290 | 0.0 | 0.0 | 0.00 | 0.00 | 0.00 | 65 | 941.1 |
| 20260901033036 | 60 | 290 | 0.0 | 0.0 | 0.00 | 0.00 | 0.00 | 63 | 940.9 |
| 20260901031533 | 61 | 290 | 0.0 | 0.0 | 0.00 | 0.00 | 0.00 | 61 | 940.7 |
| 20260901030031 | 62 | 290 | 0.0 | 1.0 | 0.00 | 0.00 | 0.00 | 59 | 940.6 |
| 20260901024529 | 64 | 290 | 0.0 | 1.0 | 0.00 | 0.00 | 0.00 | 56 | 940.4 |
| 20260901023027 | 66 | 290 | 0.0 | 0.0 | 0.00 | 0.00 | 0.00 | 53 | 940.1 |
| 20260901021532 | 68 | 290 | 0.0 | 1.0 | 0.00 | 0.00 | 0.00 | 50 | 939.8 |
| 20260901020022 | 69 | 289 | 0.0 | 2.0 | 0.00 | 0.00 | 0.00 | 48 | 939.6 |
| 20260901014520 | 71 | 283 | 1.0 | 4.0 | 0.00 | 0.00 | 0.00 | 45 | 939.4 |
| 20260901013019 | 72 | 276 | 2.0 | 6.0 | 0.00 | 0.00 | 0.00 | 43 | 939.1 |
| 20260901011616 | 73 | 284 | 4.0 | 9.0 | 0.00 | 0.00 | 0.00 | 41 | 939.0 |
| 20260901010024 | 75 | 270 | 6.0 | 11.0 | 0.00 | 0.00 | 0.00 | 39 | 938.9 |
| 20260901004513 | 75 | 276 | 6.0 | 15.0 | 0.00 | 0.00 | 0.00 | 39 | 938.8 |
| 20260901003018 | 76 | 287 | 9.0 | 15.0 | 0.00 | 0.00 | 0.00 | 38 | 938.7 |
| 20260901001517 | 76 | 267 | 8.0 | 16.0 | 0.00 | 0.00 | 0.00 | 38 | 938.5 |
| 20260901000010 | 77 | 310 | 8.0 | 18.0 | 0.00 | 0.00 | 0.00 | 36 | 938.5 |
| 20260831234510 | 77 | 298 | 7.0 | 15.0 | 0.00 | 0.00 | 0.00 | 37 | 938.5 |
| 20260831233012 | 77 | 316 | 10.0 | 26.0 | 0.00 | 0.00 | 0.00 | 36 | 938.4 |
| 20260831231516 | 78 | 269 | 7.0 | 20.0 | 0.00 | 0.00 | 0.00 | 36 | 938.4 |
| 20260831230008 | 78 | 273 | 5.0 | 21.0 | 0.00 | 0.00 | 0.00 | 36 | 938.2 |